Regional Weather Roundup
Issued by NWS Sioux Falls, SD

Home | Current Version | Previous Version | Text Only | Print | Product List | Glossary Off
Versions: 1 2 3 4 5 6 7 8 9 10 11 12 13 14 15 16 17 18 19 20 21 22 23 24 25 26 27 28 29 30 31 32 33 34 35 36 37 38 39 40 41 42 43 44 45 46 47 48 49 50

000
ASUS43 KFSD 240902
RWRFSD

WEATHER ROUNDUP FOR SE SOUTH DAKOTA/SW MINNESOTA/NW IOWA
NATIONAL WEATHER SERVICE SIOUX FALLS SD
400 AM CDT MON APR 24 2017

NOTE: "FAIR" INDICATES FEW OR NO CLOUDS BELOW 12,000 FEET WITH NO
SIGNIFICANT WEATHER AND OR OBSTRUCTIONS TO VISIBILITY.


SDZ038>040-050-052>070-241000-
SOUTHEAST SOUTH DAKOTA

CITY           SKY/WX    TMP DP  RH WIND       PRES   REMARKS
BROOKINGS      CLOUDY    53  34  48 S15G23    29.68F
CHAMBERLAIN    CLOUDY    59  37  44 S17G24    29.56F
HURON          CLOUDY    53  37  54 S13       29.60F
MADISON        FAIR      50  36  57 S16       29.68F
MITCHELL       CLOUDY    56  37  49 S13       29.62F
SIOUX FALLS    CLOUDY    54  35  48 S17       29.69F
WINNER         FAIR      57  35  43 S22G29    29.53F
YANKTON        CLOUDY    55  30  38 S16G24    29.67F
$$

MNZ071-072-080-081-089-090-097-098-241000-
SOUTHWEST MINNESOTA

CITY           SKY/WX    TMP DP  RH WIND       PRES   REMARKS
FAIRMONT       PTCLDY    49  34  56 S10       29.82F
JACKSON        CLOUDY    50  32  50 S12       29.80F
LUVERNE        CLOUDY    46  32  57 S6        29.75F
MARSHALL       CLOUDY    56  32  40 S22G31    29.70F
MONTEVIDEO     CLOUDY    48  36  61 S8        29.71F
PIPESTONE      CLOUDY    50  28  43 S13       29.72F
REDWOOD FALLS  PTCLDY    50  33  52 S13       29.75S
WINDOM         CLOUDY    54  32  43 S13       29.77F
WORTHINGTON    CLOUDY    53  33  46 S18       29.77F
$$

IAZ001>003-012>014-020>022-031-032-NEZ013-014-SDZ071-241000-
NORTHWEST IOWA

CITY           SKY/WX    TMP DP  RH WIND       PRES   REMARKS
DENISON        MOCLDY    50  36  57 S9        29.85S
ESTHERVILLE    CLOUDY    47  35  63 S14       29.80F
LE MARS        CLOUDY    54  36  50 S13       29.77F
ORANGE CITY    CLOUDY    52  36  54 S10       29.76F
SHELDON        CLOUDY    50  34  53 S14       29.76S
SIOUX CITY     MOCLDY    53  36  52 SE12      29.77F
SPENCER        CLOUDY    49  35  58 MISG      29.80F
STORM LAKE     CLOUDY    46  34  61 S12       29.81F
$$

ABBREVIATIONS USED IN REMARKS
   TC - TEMPERATURE IN CELSIUS
  WCI - WIND CHILL INDEX
   HX - HEAT INDEX
  VSB - VISIBILITY





USA.gov is the U.S. government's official web portal to all federal, state and local government web resources and services.